Overview Statistics Trail Chart Weather Telemetry Raw packets
 

This is the latest recevied weather packets stored in our database for station/object NT9G. If no packets are shown the sender has not sent any weather packets the latest 10 day(s).

<< 36 37 38 39 40 41 42 >>
Time Temp. Humidity Pressure Rain* Wind** Luminosity Snow
1777610058 9.44° C 91% 1015.2 hPa 0 mm - - -
1777609758 9.44° C 91% 1015.3 hPa 0 mm - - -
1777609457 9.44° C 91% 1015.3 hPa 0 mm - - -
1777609157 9.44° C 91% 1015.3 hPa 0 mm - - -
1777608857 9.44° C 91% 1015.3 hPa 0 mm - - -
1777608556 10° C 92% 1015.4 hPa 0 mm - - -
1777608256 10° C 92% 1015.4 hPa 0 mm - - -
1777607956 10° C 92% 1015.4 hPa 0 mm - - -
1777607656 10° C 91% 1015.4 hPa 0 mm - - -
1777607355 10° C 91% 1015.4 hPa 0 mm - - -
1777607055 10° C 91% 1015.4 hPa 0 mm - - -
1777606755 10° C 91% 1015.4 hPa 0 mm - - -
1777606454 10° C 92% 1015.5 hPa 0 mm - - -
1777606154 10° C 94% 1015.5 hPa 0 mm - - -
1777605554 10° C 96% 1015.6 hPa 0 mm - - -
1777603151 10.56° C 93% 1015.4 hPa 0 mm - - -
1777602551 10.56° C 90% 1015.3 hPa 0 mm - - -
1777602250 11.11° C 87% 1015 hPa 0 mm - - -
1777601950 11.11° C 81% 1015.1 hPa 0 mm - - -
1777601650 11.11° C 76% 1015.2 hPa 0 mm - - -
1777601350 11.67° C 73% 1015.2 hPa 0 mm - - -
1777601050 11.67° C 72% 1015.1 hPa 0 mm - - -
1777600749 11.67° C 69% 1015 hPa 0 mm - - -
1777600449 12.22° C 68% 1014.8 hPa 0 mm - - -
1777600148 12.22° C 67% 1014.7 hPa 0 mm - - -

* Rain since midnight (hover to see other rain measurements)
** Current wind speed in m/s (hover to see current wind gust speed)